Regional Weather Roundup
Issued by NWS

Home | Current Version | Previous Version | Graphics & Text | Print | Product List | Glossary Off
Versions: 1 2 3 4 5 6 7 8 9 10 11 12 13 14 15 16 17 18 19 20 21 22 23 24 25 26 27

000
ASUS45 KSLC 292310
RWRUT

UTAH REGIONAL WEATHER ROUNDUP
NATIONAL WEATHER SERVICE SALT LAKE CITY UT
500 PM MDT FRI APR 29 2016

UTZ001>011-023>025-300000-

NORTHERN UTAH

CITY           SKY/WX    TMP DP  RH WIND       PRES   REMARKS
BRIGHAM CITY   MOSUNNY   55  33  42 SW8       29.82F
HILL AFB       PTSUNNY   53  34  48 VRB2      29.82F
LOGAN          MOSUNNY   55  35  47 SW7       29.81F
OGDEN          MOSUNNY   55  35  47 CALM      29.82F
PROVO AIRPORT  PTSUNNY   52  37  58 SW10      29.83F
SALT LAKE CITY PTSUNNY   57  35  43 NW9       29.82F
VERNAL         CLOUDY    46  38  73 W13       29.81F
WENDOVER       CLOUDY    54  34  47 CALM      29.84F
HEBER CITY     MOSUNNY   52  32  46 CALM      29.81S

$$

UTZ012>022-026-027-300000-

SOUTHERN/CENTRAL UTAH

CITY           SKY/WX    TMP DP  RH WIND       PRES   REMARKS
BLANDING       CLOUDY    49  40  72 E10       29.87F
BRYCE CANYON   MOSUNNY   48  28  46 NW22      29.88F
CEDAR CITY     CLOUDY    50  35  56 NW16G23   29.87S
DELTA          PTSUNNY   57  32  38 NW12G20   29.83S
HANKSVILLE     MOSUNNY   63  34  34 NE7G16    29.77F
MILFORD        PTSUNNY   58  31  35 N10       29.83F
MOAB/CYNLANDS  CLOUDY    58  35  42 W14G20    29.74F
PRICE          MOSUNNY   54  32  43 NW12G21   29.78S
ST GEORGE      CLOUDY    63  45  51 N24       29.85R

$$

REGIONAL REPORTS     COLORADO/ARIZONA

CITY           SKY/WX    TMP DP  RH WIND       PRES   REMARKS
CRAIG, CO      CLOUDY    49  34  56 N12       29.79F
GRAND JUNCTION SUNNY     57  34  41 NW17      29.74F
RIFLE          CLOUDY    50  35  56 NW15G23   29.76S
MONTROSE       CLOUDY    51  33  50 SW7       29.79F
CORTEZ         CLOUDY    53  33  46 W17G25    29.79F
PAGE, AZ       PTSUNNY   63  34  33 SW9       29.77F
GRAND CANYON   MOSUNNY   54  29  38 W9G21     29.89F
KINGMAN        MOSUNNY   67  34  29 W9        29.86F
FLAGSTAFF      PTSUNNY   50  30  46 W10G22    29.92F

$$

REGIONAL REPORTS    NEVADA/IDAHO/WYOMING

CITY           SKY/WX    TMP DP  RH WIND       PRES   REMARKS
LAS VEGAS, NV  MOSUNNY   74  34  23 VRB3      29.74F
ELY            LGT RAIN  42  34  73 N6        29.91S
ELKO           CLOUDY    44  37  76 CALM      29.87F
POCATELLO, ID  CLOUDY    51  42  71 SE12      29.84F
BURLEY         LGT RAIN  47  41  80 NE8       29.83S
EVANSTON, WY   CLOUDY    42  26  53 N6        29.86F
ROCK SPRINGS   CLOUDY    40  29  64 NE10      29.88S WCI  33
KEMMERER       CLOUDY    39  27  60 CALM      29.88S

$$




USA.gov is the U.S. government's official web portal to all federal, state and local government web resources and services.